Theta_e
337 336 338 341 342 341 341 341 341 341 341 341 341 340 340 339 339 344 347 345 343 344 344 344 344 343 342 343 342 341 341 341 341 339 341 344 344 344 343 343 343 343 342 343 343 343 345 347 346 344 343 340 337 336 337 340 339 338 338 337 336 336 335
339 338 337 338 341 342 342 341 340 341 341 341 340 340 341 339 340 343 346 346 344 344 343 343 344 343 342 342 342 342 342 343 343 342 341 342 344 344 343 343 342 342 342 342 342 341 343 345 347 347 345 343 342 338 335 335 337 337 338 337 335 336 335
338 338 337 336 339 342 342 341 341 341 341 341 340 340 341 341 342 343 346 346 345 345 343 343 344 344 343 342 342 343 343 344 343 343 342 343 343 343 342 342 342 342 343 342 342 341 343 344 345 347 345 342 344 342 335 333 335 337 338 337 335 336 335
338 337 337 337 339 342 343 342 341 341 341 341 341 340 341 343 343 343 345 346 346 345 343 343 344 345 344 344 344 344 344 344 343 343 343 343 344 343 342 342 341 342 342 343 342 341 343 345 345 347 344 341 342 341 338 338 338 339 339 337 337 336 335
338 337 337 340 341 343 343 342 341 342 342 341 341 341 342 343 343 343 345 346 346 345 343 343 343 344 344 344 345 345 344 344 345 345 344 344 344 344 344 342 341 341 341 341 340 340 342 343 344 346 344 342 342 340 339 340 339 338 338 338 337 336 335
338 338 339 342 343 342 342 342 342 343 343 342 342 343 343 344 344 344 345 346 347 345 343 343 343 343 344 344 344 345 345 345 345 345 345 345 345 344 344 343 342 341 341 341 340 340 342 342 343 346 344 342 343 341 340 341 339 338 338 337 336 335 334
339 340 341 342 343 343 343 343 343 343 343 343 343 343 344 344 344 344 345 345 346 345 344 343 343 344 344 344 344 345 346 346 345 345 344 345 345 344 344 343 342 342 341 341 341 340 342 342 343 345 345 343 342 340 339 339 338 338 338 337 336 334 333
340 341 342 342 343 343 343 343 344 344 344 344 343 344 344 344 344 345 345 345 345 345 345 345 344 344 344 344 344 345 345 345 344 344 343 344 344 344 344 343 342 342 341 341 341 342 342 343 343 343 343 344 344 342 340 338 337 337 337 336 335 334 332
340 342 343 343 343 344 343 343 344 344 344 344 344 344 344 344 344 346 345 345 345 345 346 345 344 343 343 343 344 345 344 344 343 342 342 342 343 343 343 343 343 342 342 342 342 343 343 343 344 343 342 342 343 344 343 340 339 337 336 336 335 334 332
340 342 343 344 343 344 344 344 344 345 345 344 344 345 344 343 344 346 345 345 346 346 346 345 344 343 342 343 343 344 344 343 342 342 342 342 342 343 343 343 343 343 342 343 343 343 343 343 343 343 342 340 340 342 343 342 340 338 336 336 335 334 332
339 341 343 344 344 344 344 344 344 344 345 346 345 345 344 343 344 346 346 346 347 348 346 346 344 342 342 342 343 344 343 342 342 341 342 342 342 343 343 343 344 343 343 343 343 343 342 343 343 343 342 340 339 340 340 340 340 337 335 335 335 333 332
339 340 342 344 345 345 345 345 345 345 346 345 345 346 344 344 345 347 347 347 347 346 346 346 344 342 342 343 344 345 343 342 342 341 341 342 342 343 343 344 344 344 344 343 343 343 342 343 343 342 341 340 338 338 337 338 339 337 335 335 334 333 332
339 339 340 343 345 343 340 340 342 344 346 346 345 347 346 344 346 347 347 347 346 346 346 346 345 343 344 345 345 345 344 343 343 342 341 342 342 343 344 344 344 344 344 343 343 342 342 342 343 341 340 339 338 338 336 336 338 337 335 335 334 333 332
338 338 339 340 343 342 339 338 339 339 342 346 346 346 346 346 346 346 346 345 344 345 347 346 345 345 345 346 345 345 344 343 342 342 342 342 342 343 344 344 344 344 344 343 343 342 342 342 342 340 339 338 338 338 337 336 336 337 335 334 334 333 332
337 338 338 340 341 342 340 340 340 339 339 342 344 345 346 346 345 345 344 343 344 346 347 346 346 345 346 347 346 345 344 343 342 341 341 342 342 343 344 344 344 344 343 343 343 343 343 343 341 340 339 337 337 336 336 335 335 336 336 334 333 332 331
338 338 338 339 339 340 339 338 339 340 340 340 342 345 347 346 345 344 343 344 346 346 347 347 346 346 346 347 346 345 344 343 343 342 341 342 341 342 343 343 344 343 343 343 343 343 342 342 341 340 339 337 336 336 335 335 334 335 336 334 333 332 331
338 338 338 338 339 338 339 339 339 340 340 340 340 343 346 346 344 345 344 346 347 347 347 347 347 346 346 346 345 345 344 343 343 342 341 341 341 341 342 343 343 343 343 342 343 343 342 341 340 339 338 337 335 335 335 334 335 334 335 335 333 332 332
338 338 338 338 338 338 338 339 339 339 340 341 340 340 344 346 345 345 345 346 347 347 348 348 347 346 346 346 345 345 344 344 343 342 341 341 340 340 341 342 343 343 343 343 343 343 342 341 340 339 338 336 335 334 334 334 335 334 334 335 334 332 332
338 338 338 337 338 338 338 339 339 339 339 340 341 339 340 345 346 345 345 346 346 348 348 348 347 346 346 345 345 345 344 343 343 342 341 341 340 340 341 342 343 343 343 343 342 343 342 341 340 338 337 336 335 334 334 334 333 333 334 335 333 331 332
337 338 338 338 338 338 339 338 339 339 339 340 341 339 338 343 346 345 345 346 347 348 348 348 347 346 346 345 345 345 345 344 343 342 341 340 340 340 340 341 343 343 343 343 342 343 342 341 340 338 337 336 334 334 334 334 333 333 334 334 332 331 331
338 338 338 338 339 339 339 339 339 340 340 339 340 339 338 342 346 346 345 346 347 348 347 347 347 346 346 345 345 345 345 344 343 342 341 341 340 340 340 341 342 343 343 342 342 342 342 340 340 338 336 335 334 333 334 334 334 334 334 333 332 330 330
337 338 339 339 340 339 339 340 340 341 341 341 340 340 338 340 344 346 346 346 347 348 347 346 346 346 345 345 345 345 346 345 343 341 341 341 341 341 341 342 342 342 342 342 342 342 341 340 339 338 336 335 334 334 334 334 334 334 334 334 332 330 330
338 338 339 339 339 339 339 340 340 340 341 341 341 340 337 335 338 342 345 347 346 347 347 346 345 346 345 345 345 345 345 345 343 342 342 341 341 341 341 341 342 342 342 342 341 341 341 340 339 337 336 335 334 334 333 333 333 334 334 334 332 330 329
339 339 339 339 339 339 339 339 340 340 339 337 338 339 336 335 336 338 341 346 347 347 347 346 346 345 345 345 345 345 345 344 343 342 342 342 342 342 341 341 342 342 341 341 341 340 340 339 338 336 335 334 333 333 333 332 333 333 333 333 333 331 330
340 340 339 339 339 339 339 339 339 340 338 336 336 337 335 336 338 338 337 343 347 347 346 346 345 345 345 345 345 345 344 344 343 342 342 342 342 342 341 341 342 341 341 340 340 339 338 337 336 336 334 332 332 333 332 332 333 333 333 333 333 332 331
339 340 340 339 338 338 338 338 339 339 338 336 336 337 336 336 339 338 336 341 345 346 346 346 345 344 344 344 345 344 344 344 343 342 342 342 343 342 342 342 341 340 340 339 339 338 338 336 335 334 332 330 331 332 332 332 332 332 332 332 332 332 332
336 339 339 338 337 337 336 337 338 338 338 338 337 336 335 336 338 338 337 342 345 346 346 345 345 344 344 343 344 344 344 343 343 342 342 342 342 342 342 342 341 340 339 339 338 337 337 335 334 332 330 328 328 329 329 330 331 331 330 329 330 331 331
338 340 339 338 337 337 336 336 337 337 338 338 338 337 337 336 337 337 339 344 346 346 346 345 345 345 344 344 343 343 343 343 342 342 342 342 342 342 341 342 342 340 339 338 336 336 336 334 333 331 328 326 326 326 326 327 328 329 328 327 328 330 329
340 340 338 338 337 337 336 337 336 337 337 338 338 338 339 338 337 337 341 345 346 346 346 345 345 344 344 343 343 342 342 343 342 342 342 342 342 342 341 342 342 341 340 338 336 336 335 333 331 329 327 326 325 325 324 325 326 326 326 326 327 329 328
340 340 339 338 337 336 336 337 337 336 336 338 337 337 338 338 339 341 344 345 345 346 346 345 344 344 343 343 343 342 342 343 342 342 342 342 342 341 340 341 341 340 340 338 337 335 333 332 330 327 326 326 325 324 323 323 323 323 324 325 325 326 327
340 339 338 337 336 336 335 336 337 336 336 337 338 337 337 338 340 343 345 345 345 345 346 345 344 344 343 343 342 342 342 342 342 342 342 342 341 341 340 341 341 341 339 338 337 335 332 330 329 327 327 326 324 323 323 322 320 319 320 321 322 322 323
339 338 338 337 336 335 335 336 336 336 336 337 338 337 338 340 341 343 345 346 345 345 346 345 344 344 344 343 342 342 342 342 342 342 342 341 341 340 340 341 341 340 339 338 336 334 331 329 328 328 327 325 323 322 322 320 317 316 316 317 317 317 316
339 338 338 337 335 335 334 334 335 335 336 336 336 335 338 341 342 344 345 346 345 346 346 345 344 344 343 343 342 341 342 341 341 341 342 341 340 340 340 341 341 340 339 337 336 334 331 330 329 329 328 326 323 322 321 319 315 314 314 313 314 314 314
339 339 338 337 335 334 333 333 333 334 335 335 335 336 339 342 343 343 344 345 346 346 346 345 344 343 343 342 341 341 341 341 340 341 341 341 340 341 340 340 340 340 339 337 335 333 331 329 330 330 329 327 324 323 322 317 313 313 315 316 316 316 315
339 338 338 337 335 333 333 333 333 334 334 335 336 339 341 341 341 343 344 345 345 346 346 345 344 342 342 341 341 340 340 341 340 341 341 341 340 340 339 339 339 338 338 337 334 333 331 329 329 329 329 328 326 325 322 316 314 316 319 319 318 318 316
338 338 338 337 335 334 333 333 333 334 334 335 338 341 342 341 342 343 344 345 345 346 346 345 344 343 341 341 340 340 340 341 341 340 341 341 341 340 339 339 338 337 336 335 333 332 331 328 327 327 327 327 325 323 319 316 317 320 320 319 318 318 316
336 336 337 336 335 334 333 333 332 332 331 334 339 341 341 341 342 341 340 340 340 341 344 345 344 343 341 340 340 339 339 341 341 341 341 340 340 339 338 338 337 336 335 333 332 331 330 327 326 325 324 324 323 321 319 319 320 321 320 318 318 317 315
Wind_Speed
25 19 16 23 30 29 29 29 30 31 30 28 28 27 24 24 27 26 22 23 24 23 24 24 23 23 23 21 20 21 19 17 18 16 11 11 14 14 13 12 11 9 8 7 7 5 2 1 4 6 7 9 15 15 10 6 6 9 12 11 10 12 14
27 25 17 16 23 29 27 27 29 30 29 28 28 27 25 24 26 26 23 24 25 25 26 25 23 23 23 21 20 20 20 18 17 16 15 13 11 11 12 13 12 10 8 9 10 9 5 2 2 2 4 6 7 8 7 6 7 10 11 10 10 12 12
27 29 23 19 19 24 26 26 28 29 29 29 29 29 27 26 26 26 25 25 25 25 26 26 24 23 22 21 20 19 19 18 16 15 14 14 11 9 10 11 11 10 8 7 9 10 7 5 4 2 1 1 2 4 5 5 10 12 11 10 11 12 11
31 30 29 27 24 23 26 27 28 29 29 30 31 31 29 28 27 27 26 26 26 26 26 27 26 24 23 21 19 19 18 16 16 16 14 14 12 11 10 10 9 10 8 6 7 8 6 4 3 3 1 2 2 4 4 5 11 12 11 11 12 12 11
34 33 29 28 29 27 27 28 28 28 28 29 30 31 30 29 28 29 28 27 27 27 28 27 26 24 23 21 19 18 19 17 16 16 15 14 14 12 12 11 10 10 9 9 9 5 4 3 2 2 3 3 2 3 6 8 10 10 10 11 12 12 11
33 35 32 29 30 30 29 28 27 28 28 28 30 30 31 31 30 30 30 30 30 30 29 28 27 25 23 22 21 19 19 19 17 16 15 14 14 13 12 11 12 11 10 11 10 6 4 3 1 1 2 2 1 2 9 13 12 9 10 12 13 13 11
31 32 33 31 30 30 30 30 29 29 30 31 32 32 33 33 31 32 32 31 30 31 30 29 27 25 24 22 22 20 19 19 18 17 16 14 14 13 12 12 12 12 11 11 10 7 5 3 2 1 1 3 3 3 4 13 16 11 9 13 14 12 11
30 30 32 32 31 31 32 33 33 32 32 33 34 33 34 35 34 32 32 30 29 30 31 30 27 26 25 23 21 20 19 18 18 17 16 15 14 13 13 13 12 12 12 10 8 7 5 4 3 1 0 1 2 3 3 6 13 12 13 15 13 11 12
34 30 30 31 32 33 34 35 35 34 32 32 34 34 35 37 35 33 32 30 29 30 31 30 28 27 26 24 21 21 20 19 18 17 16 14 14 14 13 13 13 12 10 9 8 7 6 5 3 2 2 1 1 1 2 3 6 10 16 18 13 11 12
39 35 33 33 34 34 35 35 35 34 33 33 33 34 36 38 36 33 33 31 29 30 31 31 29 27 26 25 22 21 21 20 18 18 17 15 14 14 14 14 14 13 11 10 9 8 6 5 4 4 3 2 2 1 1 1 1 6 14 17 14 12 12
40 38 35 34 34 36 36 36 35 33 32 33 34 34 36 38 36 34 33 32 31 30 30 30 29 27 26 26 23 21 22 21 19 17 16 15 14 14 15 15 15 13 11 10 10 9 8 6 5 5 4 4 4 2 2 1 0 4 11 15 15 15 14
40 38 35 33 32 34 35 34 35 34 32 32 33 33 35 37 36 35 33 33 32 31 30 29 29 27 26 27 25 21 21 21 19 17 15 14 14 14 15 15 14 13 12 11 10 9 8 7 6 5 4 4 5 4 3 2 0 3 9 14 15 17 15
39 37 35 33 29 28 28 24 23 27 30 32 31 31 34 35 36 36 35 34 33 31 30 28 28 28 27 27 26 23 22 22 20 17 16 15 15 15 15 15 14 14 13 12 11 10 9 9 8 5 4 5 5 6 4 2 1 3 9 14 16 17 15
38 36 34 34 29 24 26 26 21 18 21 28 31 30 32 34 36 37 35 34 33 31 30 29 29 28 27 27 26 24 23 22 21 19 17 16 16 16 16 15 15 14 14 13 12 12 11 10 8 6 5 5 5 6 5 4 3 2 9 13 16 17 16
37 36 34 36 33 25 25 32 30 23 21 23 28 31 32 33 35 36 35 34 33 31 30 30 29 29 28 27 27 26 24 22 22 20 18 18 18 17 17 16 15 15 14 14 13 13 12 11 10 8 8 7 6 5 5 5 4 2 7 13 16 17 15
36 36 35 36 38 33 29 30 32 31 27 24 26 30 32 33 34 35 34 33 32 31 30 30 30 30 29 28 27 26 25 23 23 21 20 19 19 19 19 17 16 16 16 16 14 13 13 12 11 11 10 9 7 6 5 5 4 3 5 14 17 17 15
35 36 36 36 37 38 36 33 31 31 31 27 27 29 31 32 32 33 33 32 31 32 31 30 31 30 29 29 27 26 25 24 23 22 21 20 20 20 20 19 17 16 17 17 16 15 14 13 12 11 10 9 8 7 6 6 6 4 2 11 15 15 17
36 36 38 38 36 37 37 36 34 32 31 31 30 30 29 30 32 32 33 32 31 32 31 31 32 31 29 29 27 26 26 24 23 22 22 22 20 20 20 21 19 17 18 18 17 16 15 15 13 11 10 9 7 8 9 7 7 6 4 8 13 14 15
36 34 35 36 35 35 34 34 36 34 32 34 33 31 30 30 32 33 33 33 32 32 32 32 32 31 30 29 27 26 26 25 24 23 23 22 21 20 20 20 19 19 19 19 19 18 17 16 15 12 11 9 7 9 11 8 8 7 5 10 15 15 15
35 31 30 31 31 32 31 31 34 34 33 35 36 33 34 33 33 33 33 33 32 32 32 32 32 31 30 29 28 26 25 25 24 23 23 23 22 21 21 20 19 19 19 20 20 18 17 17 17 14 12 10 9 9 11 10 9 8 8 13 16 15 14
33 31 30 29 28 28 29 30 32 34 34 35 35 35 37 37 35 34 33 33 33 33 33 32 32 31 30 29 28 26 25 25 24 24 23 23 22 21 21 20 19 19 19 19 19 18 18 18 18 15 12 11 10 9 10 10 11 10 10 15 16 15 15
29 30 29 28 29 29 28 29 30 32 33 33 33 34 36 36 33 33 34 34 32 33 34 33 33 33 30 29 27 26 25 24 24 24 22 22 22 20 20 20 19 19 18 18 18 18 18 19 18 15 14 13 13 12 11 10 12 13 12 14 16 16 16
27 27 28 27 28 29 28 28 29 30 30 30 30 31 29 29 27 27 30 35 34 32 34 33 32 32 31 29 28 27 26 24 25 24 22 22 21 20 19 19 19 20 19 18 18 18 18 19 17 16 15 15 14 15 14 12 12 14 13 13 17 17 16
25 25 27 26 25 27 28 29 30 30 27 23 24 25 24 25 28 27 26 30 34 32 33 32 31 31 30 29 28 27 26 24 25 25 22 21 20 19 19 19 20 20 19 18 19 18 18 19 18 17 16 15 14 15 15 14 12 13 13 13 16 19 17
25 24 25 25 24 24 27 29 29 28 24 22 25 26 24 27 31 29 27 26 31 31 31 31 30 30 29 27 27 27 26 23 23 24 23 21 20 20 18 17 18 20 18 18 19 19 19 19 18 17 14 12 14 14 15 15 12 11 12 12 14 19 18
22 22 22 23 23 23 25 27 28 26 22 23 28 29 27 29 30 30 30 28 28 29 29 29 29 29 28 27 26 27 26 24 23 23 22 21 20 20 19 17 18 19 18 18 19 19 19 19 17 16 13 11 14 14 14 15 12 9 8 7 9 16 17
19 18 19 20 21 23 25 24 25 24 22 23 26 26 28 29 29 30 33 29 27 26 27 28 28 28 28 28 27 25 24 23 23 22 22 21 21 21 20 18 19 20 19 19 20 20 19 19 17 15 12 11 13 13 13 14 13 10 8 4 4 9 11
20 17 18 20 20 22 24 22 21 21 21 23 24 24 26 26 28 33 33 28 25 24 25 27 27 27 28 29 29 27 24 22 22 21 21 22 22 22 21 19 20 22 21 20 20 20 19 19 17 14 11 10 11 12 12 13 13 12 9 5 3 6 8
21 19 21 22 21 20 21 21 19 19 19 21 23 24 24 25 32 37 31 24 23 24 25 26 26 26 28 30 31 29 26 22 21 20 19 19 20 21 21 20 21 23 23 21 20 19 19 20 18 14 13 12 12 12 11 11 12 12 10 7 6 7 8
21 21 23 26 25 22 22 21 20 19 19 18 18 20 24 30 35 34 28 23 23 23 25 27 27 27 29 30 31 30 27 23 20 18 18 18 18 19 19 19 20 22 22 22 20 18 19 20 17 14 14 14 14 13 11 9 10 11 11 9 8 8 8
22 21 24 28 28 26 25 25 23 21 20 17 15 19 28 34 32 26 23 23 22 20 23 28 28 28 29 30 30 30 27 24 20 19 18 18 19 20 19 18 20 22 22 22 20 19 20 19 17 15 15 15 15 14 12 10 9 10 10 10 9 9 8
20 21 23 27 29 30 28 26 24 23 21 19 19 25 32 31 25 20 20 22 22 19 21 25 28 29 30 30 31 30 27 24 21 20 20 20 20 22 21 20 22 23 23 22 20 20 22 19 16 16 17 17 16 15 13 11 10 10 11 10 9 9 8
20 20 21 24 28 29 27 24 24 25 23 22 22 28 30 23 19 19 19 21 23 22 21 24 28 30 30 31 32 31 27 25 22 21 21 21 20 20 20 21 24 25 23 22 21 20 22 21 16 16 17 17 17 16 13 12 12 12 11 11 10 9 9
20 21 21 24 25 25 25 24 23 23 24 25 26 29 26 20 18 19 20 21 23 23 23 25 28 30 30 31 32 32 28 25 23 22 21 21 20 19 19 20 24 25 23 24 22 21 23 22 17 16 18 18 18 17 14 13 14 13 12 12 12 11 11
22 22 20 21 23 23 24 22 20 19 21 24 26 25 22 20 19 19 20 22 23 24 24 25 27 31 32 31 32 33 29 25 22 21 21 20 19 19 21 21 23 24 23 25 24 20 22 24 19 17 17 15 15 17 16 15 17 15 14 14 14 14 14
25 25 22 22 23 24 24 21 17 16 18 22 25 22 19 20 19 18 20 22 23 24 25 26 26 30 32 32 31 32 30 26 23 22 20 19 20 21 22 22 23 23 23 25 24 21 23 24 21 18 17 14 15 18 19 19 19 18 16 16 16 16 16
25 26 25 25 23 22 23 24 21 17 18 21 23 22 19 19 15 11 12 13 13 16 21 25 27 28 31 32 30 31 32 28 24 23 20 17 19 22 22 22 23 23 23 24 23 24 25 24 19 16 15 15 18 21 21 22 21 19 18 19 18 18 18
Wind_Direction
182 213 218 188 176 178 182 182 182 183 186 187 184 185 186 188 190 188 188 189 189 190 189 190 193 195 196 199 202 203 205 210 213 222 225 198 190 202 215 221 233 239 243 254 261 260 262 256 202 186 205 182 158 162 177 207 223 203 198 196 194 204 206
185 190 222 230 185 174 180 181 180 183 188 187 184 184 184 187 188 187 190 191 190 192 193 194 195 196 198 200 204 201 201 206 205 206 215 218 213 208 205 208 216 225 236 250 252 246 240 248 255 178 181 200 192 179 169 171 189 189 187 185 181 185 188
189 182 195 226 205 177 180 183 182 185 188 187 185 185 184 187 189 190 193 192 191 193 195 197 195 196 199 200 205 203 197 200 201 201 208 218 226 225 213 207 208 208 217 242 238 227 225 226 244 265 153 177 176 167 184 178 164 168 172 173 173 171 171
188 185 183 199 202 186 183 186 186 187 189 188 187 186 185 187 189 191 194 193 192 196 198 198 196 194 197 199 202 204 200 199 202 205 210 215 221 226 224 219 219 218 217 239 243 221 213 216 234 262 348 2 81 129 193 180 147 154 162 165 170 165 165
186 187 186 192 194 189 186 186 187 188 191 191 187 186 187 187 188 190 195 194 193 199 201 199 197 194 196 200 199 200 202 202 201 204 209 215 219 220 222 221 222 229 230 240 260 257 222 222 263 297 8 6 30 117 172 163 142 153 159 156 159 158 164
186 188 190 194 192 189 188 186 187 188 191 193 189 189 188 187 188 190 195 197 194 198 202 199 197 195 196 198 199 199 199 200 200 203 208 215 219 218 219 221 221 227 230 234 250 261 240 244 269 295 349 335 284 189 174 159 142 138 143 150 155 155 164
190 189 191 196 193 188 187 189 192 191 191 193 191 190 189 187 189 192 196 198 195 197 200 200 196 193 194 195 197 199 198 200 202 203 210 215 220 221 219 219 221 225 228 231 238 238 226 236 244 214 302 299 284 281 195 158 148 139 138 154 160 155 159
196 193 193 197 195 190 188 191 196 195 192 194 193 190 188 188 190 193 196 197 197 199 199 198 195 191 191 192 194 197 197 200 203 204 210 213 218 223 221 221 223 223 226 227 227 224 212 213 233 227 200 315 306 308 327 134 143 142 139 147 157 156 154
196 194 195 198 198 194 192 193 197 197 194 194 193 191 189 189 190 192 195 196 198 202 201 198 195 190 189 190 191 195 196 199 203 204 208 212 217 224 223 223 223 222 224 223 219 217 211 209 216 202 173 101 55 318 348 61 118 135 142 143 148 159 160
194 193 195 199 200 198 196 195 197 198 196 194 193 191 190 189 189 190 192 195 199 202 203 199 195 191 189 189 190 194 195 197 202 205 207 211 218 224 224 222 220 219 219 220 222 217 207 205 198 183 164 132 126 149 32 21 84 122 147 153 150 157 165
197 195 194 197 201 200 200 197 198 200 198 195 192 191 191 188 187 188 189 195 200 201 200 198 194 191 189 189 190 193 194 196 201 204 205 210 218 222 221 219 217 216 215 217 225 220 206 199 193 181 163 150 156 144 81 112 1 93 136 152 153 156 161
200 200 197 199 203 204 203 198 197 199 197 196 194 191 190 187 185 185 188 194 199 198 198 197 194 191 188 188 190 191 192 195 200 202 203 210 218 218 215 215 213 210 212 217 222 217 206 197 190 178 168 158 149 146 129 134 249 98 128 140 147 156 160
201 204 204 205 209 212 215 210 205 204 196 193 195 193 189 187 185 185 187 193 196 195 195 196 194 192 188 187 189 190 190 193 197 199 203 211 216 215 212 211 211 209 210 213 212 207 202 196 188 177 174 169 154 158 162 166 198 118 131 141 145 152 158
200 204 208 212 215 218 219 215 216 225 214 198 195 195 191 188 187 186 188 191 193 193 193 194 194 192 187 185 187 189 188 192 195 196 203 211 212 213 213 211 210 210 209 208 206 202 198 192 186 180 180 177 165 166 172 195 231 129 126 142 146 150 159
200 204 208 212 217 222 219 210 205 215 231 220 203 197 194 192 189 187 188 189 190 192 192 192 193 192 188 184 184 187 189 190 193 195 202 210 210 209 212 213 210 210 209 206 205 202 196 189 185 185 184 180 178 181 179 190 237 235 133 139 146 152 162
196 200 205 210 215 219 220 216 207 204 215 229 221 205 197 195 191 187 187 187 187 189 190 191 193 192 189 185 183 185 188 190 193 196 200 209 212 208 208 212 213 210 206 206 207 203 197 190 188 189 186 183 179 180 185 186 222 263 141 142 152 158 162
189 193 199 206 211 214 217 217 215 210 206 214 227 221 205 197 194 189 186 186 186 187 189 190 191 192 189 187 185 184 187 191 195 197 201 209 214 208 205 208 212 211 205 203 206 205 199 192 192 193 187 186 187 184 187 188 202 246 180 148 157 162 165
187 191 197 202 205 209 212 211 212 214 207 204 217 228 218 201 195 192 187 186 186 187 188 189 190 191 190 188 187 186 188 192 196 199 202 210 215 212 207 207 208 210 205 201 202 203 198 192 193 199 191 189 197 188 182 179 186 217 226 158 153 157 162
188 192 198 204 205 206 209 210 209 210 210 204 207 222 228 210 196 194 190 187 188 187 187 189 189 190 190 188 188 188 189 193 197 200 203 210 216 214 211 208 206 208 205 200 200 201 198 192 192 197 191 190 198 180 171 173 180 199 201 160 152 153 159
191 194 199 206 209 208 208 209 207 206 208 208 204 212 226 220 202 196 192 188 188 187 186 188 188 189 189 189 189 189 190 194 197 200 204 210 215 214 213 211 208 207 207 203 201 200 197 192 191 194 189 188 195 176 164 172 186 196 180 157 154 157 160
188 191 197 204 208 209 207 205 207 206 205 207 205 208 222 223 206 195 194 190 187 187 187 187 187 188 189 189 189 190 191 196 198 200 205 210 213 214 213 213 211 210 210 207 205 203 197 190 189 191 185 186 193 184 171 177 188 199 183 159 157 163 165
184 186 190 196 199 203 204 203 207 210 206 204 204 207 223 230 213 196 192 190 188 186 186 187 188 187 187 187 188 190 194 198 198 199 205 209 212 214 212 212 213 212 213 211 207 203 196 191 191 189 184 189 192 186 184 184 187 199 193 164 159 167 170
184 185 188 192 195 198 203 205 209 215 214 211 207 206 222 235 222 209 198 187 185 186 185 187 190 188 187 187 187 191 196 200 199 200 205 207 210 214 213 212 212 210 213 213 208 203 195 190 192 187 183 189 189 184 188 192 193 201 198 173 166 173 176
183 185 187 191 194 197 204 207 209 216 220 221 216 210 222 229 217 221 220 193 181 184 184 185 189 188 187 187 187 190 195 198 200 201 204 206 209 212 212 211 207 205 209 210 204 201 196 191 190 185 182 187 187 184 189 195 200 207 206 192 179 178 182
179 183 184 186 189 194 203 204 206 214 219 221 220 213 221 224 207 214 232 209 183 182 185 186 189 188 187 187 189 192 195 198 198 200 204 207 207 210 210 204 199 198 203 206 201 197 194 191 192 192 193 198 194 190 191 195 201 205 209 209 190 184 191
181 180 177 180 184 190 198 200 205 212 210 211 215 212 216 218 201 205 227 216 188 184 186 187 188 187 188 190 189 192 196 199 199 200 206 207 206 210 208 195 187 188 193 198 199 197 194 193 195 197 204 211 204 197 193 195 200 194 194 207 193 190 201
189 180 173 175 180 187 193 195 201 209 206 201 206 209 213 211 199 207 221 211 189 186 186 185 187 188 191 193 191 191 193 196 200 202 206 208 209 211 206 194 184 182 185 190 192 194 195 194 195 198 203 206 203 200 198 196 197 190 182 187 182 185 194
186 181 180 178 178 184 191 194 197 204 206 202 201 207 213 210 206 216 219 202 186 188 187 186 189 191 194 197 197 196 194 194 199 203 206 209 210 208 206 198 187 181 183 186 187 192 195 194 193 195 191 187 191 198 200 198 197 194 190 189 176 164 159
182 181 187 188 185 186 189 194 196 198 202 206 206 206 210 215 217 218 212 194 187 191 190 190 191 190 194 198 199 199 197 194 198 204 207 210 207 205 205 199 187 183 184 183 185 194 198 192 191 189 180 177 185 193 195 197 199 199 195 188 176 162 150
183 183 190 192 193 194 196 198 197 194 195 203 209 207 209 219 221 212 201 194 192 191 191 193 194 194 195 198 198 198 198 196 198 204 208 210 206 203 205 201 189 184 185 186 189 196 197 191 187 182 175 175 180 184 186 196 204 203 201 201 193 178 162
179 180 188 194 195 196 198 200 198 195 194 195 205 215 218 222 219 204 195 199 199 195 194 194 196 200 201 201 200 199 199 198 199 200 203 207 204 201 205 205 194 185 185 190 194 196 194 188 181 177 176 173 174 177 182 192 200 197 197 203 205 198 187
178 179 186 193 195 194 193 197 198 198 195 186 195 216 221 217 209 198 198 204 204 205 202 196 197 202 204 204 204 201 199 200 199 197 199 203 204 204 207 208 200 190 186 190 196 196 191 183 177 181 181 172 172 180 186 192 194 189 187 189 191 191 189
182 186 190 191 192 193 193 195 196 197 192 180 195 221 223 209 200 201 204 206 207 210 209 201 200 202 203 204 205 202 200 201 200 197 197 201 202 202 203 202 196 191 188 190 194 194 188 180 177 186 187 180 180 184 186 190 189 182 178 174 169 170 169
185 189 197 195 190 191 193 194 194 198 191 182 197 219 217 202 201 205 206 209 209 210 213 208 203 203 203 204 205 202 199 201 202 199 197 202 201 192 186 186 186 187 190 191 191 190 187 182 179 187 191 190 192 192 186 180 175 168 164 158 153 151 149
186 185 190 191 187 188 193 195 196 203 203 197 203 210 204 200 208 208 208 212 210 211 216 212 205 203 203 202 204 204 200 199 203 200 198 202 198 184 179 183 183 183 188 189 187 185 184 186 190 195 193 193 197 194 182 167 162 161 161 157 153 151 148
189 189 182 178 183 187 192 194 194 203 215 210 202 196 192 199 209 211 211 212 209 209 212 210 206 205 202 201 203 203 200 199 203 203 200 198 192 181 180 185 184 179 181 183 183 181 183 189 199 204 202 198 191 181 169 159 160 164 166 168 167 166 161
187 193 190 184 182 182 185 191 193 205 226 217 196 186 190 197 204 215 223 225 225 219 209 204 205 205 202 202 202 201 201 200 201 204 202 194 187 182 181 185 184 180 178 178 180 182 185 189 198 202 197 185 172 167 162 158 162 171 179 181 177 167 161